[[{"header":{"parameterUnit":"m.s-1","parameterCategory":1,"la1":30.2991,"la2":30.254,"lo1":-89.0895,"lo2":-89.0444,"dy":0.0017,"dx":0.0017,"nx":28,"ny":28,"refTime":"2025-07-07T21:00:00:Z","depth":0,"parameterNumber":2,"parameterNumberName":"U-component_of_WINDS"},"data":[0,0,0,0,0,0,0,0,0,0,0,0,0,0,0,0,0,0,0,0,0,0,0,0,0,0,0,0,0,0,0,0,0,0,0,0,0,0,0,0,0,0,0,0,0,0,0,0,0,0,0,0,0,0,0,0,0,0,4.0601,4.0602,0,4.0641,4.0641,4.0641,4.0566,4.0564,4.0561,4.0559,4.0599,4.0602,4.0605,0,0,0,0,0,0,0,0,0,0,0,0,0,4.0463,4.0465,4.0601,4.0602,4.0602,4.064,4.0641,4.0641,4.0567,4.0564,4.0561,4.0558,4.0598,4.0602,4.0606,0,0,0,0,0,0,0,0,0,0,0,0,0,4.0514,4.0466,4.0601,4.057,4.0567,4.064,4.0641,4.0642,4.0567,4.0564,4.056,4.0556,4.0596,4.0601,4.0606,4.0712,0,0,4.0622,4.0624,0,0,0,0,0,0,0,0,4.0512,4.052,4.0574,4.0572,4.0569,4.0595,4.0607,4.0665,4.0568,4.0567,4.0559,4.0554,4.06,4.0605,4.062,4.0714,4.0716,4.0622,4.0625,4.0627,4.0629,0,0,0,0,0,0,0,4.0508,4.0517,4.0617,4.0575,4.0572,4.0554,4.0557,4.0617,4.0604,4.0567,4.0562,4.0567,4.0598,4.0616,4.0621,4.0716,4.0622,4.0627,4.063,4.0632,4.0899,4.0903,0,0,0,0,0,0,4.0508,4.0515,4.0616,4.0618,4.0531,4.0559,4.0563,4.059,4.0603,4.0602,4.057,4.0564,4.0609,4.0615,4.0622,4.0747,4.0627,4.0632,4.0635,4.0895,4.09,4.0905,0,0,0,0,0,0,4.0506,4.0518,4.0614,4.0565,4.0576,4.0566,4.0597,4.0593,4.061,4.0606,4.0603,4.059,4.0606,4.0615,4.069,4.0747,4.0634,4.0639,4.0891,4.0897,4.0903,4.0997,0,0,0,0,0,0,4.0502,4.0518,4.0557,4.0567,4.0579,4.0682,4.0601,4.0596,4.0619,4.0611,4.0624,4.0623,4.0604,4.0683,4.0695,4.0752,4.0643,4.0885,4.0893,4.0901,4.0989,4.1006,4.102,0,0,0,0,0,4.0497,4.0582,4.056,4.0572,4.0628,4.0685,4.0692,4.0669,4.0624,4.0664,4.0662,4.0622,4.0739,4.0692,4.0705,4.0764,4.0882,4.0891,4.09,4.0982,4.1003,4.102,0,0,0,0,0,0,4.0579,4.0583,4.0558,4.0648,4.0667,4.0672,4.0722,4.0691,4.0723,4.0714,4.0684,4.0688,4.0769,4.0774,4.0721,4.0867,4.0803,4.0815,4.0861,4.088,4.0896,4.0892,4.0647,0,0,0,0,0,4.0608,4.0654,4.0655,4.0734,4.0745,4.0733,4.0756,4.0737,4.0755,4.0763,4.0766,4.0785,4.0826,4.0853,4.0891,4.099,4.0992,4.1037,4.1053,4.1066,4.1076,4.1129,4.1149,4.0935,4.0935,4.0935,0,0,4.0667,4.0675,4.0706,4.0751,4.0763,4.0812,4.0739,4.0793,4.0829,4.0771,4.0842,4.0846,4.0865,4.0953,4.0992,4.0959,4.1136,4.1077,4.1088,4.1091,4.1141,4.1161,4.1179,4.0941,4.094,4.0939,0,0,4.08,4.0811,4.0879,4.0893,4.0913,4.0904,4.0921,4.0931,4.0931,4.1003,4.096,4.1002,4.1074,4.109,4.1107,4.1248,4.1213,4.1262,4.1343,4.1395,4.1412,4.1426,4.1476,4.1495,4.1272,4.1273,4.1273,0,4.0872,4.0943,4.0917,4.0975,4.0996,4.0947,4.1015,4.103,4.1062,4.1077,4.1041,4.113,4.114,4.1231,4.1266,4.1282,4.1299,4.1259,4.1411,4.1426,4.1439,4.1487,4.1506,4.1278,4.1278,4.1277,4.1277,0,4.1029,4.108,4.1132,4.1164,4.1192,4.1254,4.1239,4.127,4.1249,4.1244,4.1318,4.1328,4.1367,4.1388,4.1368,4.1476,4.1456,4.1416,4.1351,4.1466,4.151,4.1528,4.1286,4.1284,4.1283,4.1281,0,0,4.1213,4.1232,4.1251,4.1266,4.1285,4.1323,4.1385,4.1423,4.145,4.1474,4.1524,4.1587,4.155,4.157,4.1552,4.1598,4.1709,4.1552,4.1552,4.158,4.1829,4.1858,4.188,4.1686,4.169,4.1693,4.1827,0,4.1345,4.145,4.143,4.1532,4.1579,4.1533,4.1587,4.1604,4.1602,4.1641,4.1639,4.1683,4.1632,4.1644,4.1687,4.1686,4.1758,4.1676,4.1733,4.1735,4.1728,4.1903,4.1933,4.206,4.1845,4.1847,4.185,0,4.1512,4.1543,4.165,4.1663,4.1682,4.173,4.1764,4.1802,4.1822,4.1817,4.184,4.1814,4.1875,4.181,4.1893,4.1838,4.186,4.1863,4.1868,4.1871,4.1798,4.191,4.21,4.2119,4.1876,4.1874,4.1872,0,4.1635,4.1703,4.1776,4.179,4.1807,4.1842,4.1851,4.1867,4.1892,4.1922,4.1938,4.1975,4.1995,4.2024,4.2008,4.1962,4.2095,4.2028,4.2092,4.2093,4.2121,4.2119,4.2316,4.2137,4.2137,4.2137,4.2136,0,4.1783,4.185,4.1832,4.1877,4.1951,4.1928,4.2002,4.2006,4.2021,4.2066,4.2029,4.2072,4.2049,4.209,4.2078,4.2149,4.2159,4.2157,4.2152,4.2159,4.2159,4.2172,4.2162,4.2142,4.2141,4.214,4.2139,0,4.1932,4.1922,4.1999,4.201,4.2014,4.2068,4.2077,4.2119,4.2115,4.2172,4.2184,4.2178,4.2225,4.2212,4.2263,4.2255,4.2344,4.233,4.2338,4.2334,4.2398,4.2392,4.2609,4.2636,4.2441,4.2443,4.2445,0,4.2026,4.2077,4.2094,4.2122,4.2133,4.2179,4.2204,4.2184,4.2212,4.2239,4.2278,4.2322,4.2355,4.2432,4.2432,4.2471,4.2456,4.253,4.2461,4.2467,4.2456,4.2453,4.2457,4.2543,4.2545,4.2547,4.2548,0,4.2196,4.2189,4.2227,4.2265,4.2296,4.2324,4.2349,4.2374,4.2356,4.2389,4.2437,4.2463,4.2516,4.2559,4.2595,4.2604,4.2573,4.257,4.2587,4.2593,4.2596,4.2594,4.2374,4.2565,4.2563,4.2562,4.2561,4.256,4.232,4.2363,4.2382,4.2426,4.2443,4.2467,4.2507,4.2509,4.2548,4.2589,4.2576,4.263,4.2649,4.2694,4.2708,4.275,4.2722,4.2747,4.2752,4.2758,4.2766,4.259,4.2757,4.2756,4.2756,4.2756,4.2755,0,4.2486,4.2496,4.2537,4.2574,4.2609,4.2578,4.2604,4.2635,4.2684,4.2705,4.2739,4.2794,4.2837,4.2841,4.2881,4.2914,4.2901,4.2925,4.2922,4.2924,4.2789,4.277,4.2935,4.2935,4.2935,4.2935,4.2935,4.2935,4.2577,4.2648,4.2644,4.2724,4.2734,4.2787,4.2805,4.2827,4.2844,4.2907,4.2943,4.2945,4.2959,4.3,4.3038,4.3038,4.3054,4.3084,4.3078,4.2952,4.2934,4.2917,4.2899,4.3088,4.3088,4.3209,4.321,4.3211]},{"header":{"parameterUnit":"m.s-1","parameterCategory":1,"la1":30.2991,"la2":30.254,"lo1":-89.0895,"lo2":-89.0444,"dy":0.0017,"dx":0.0017,"nx":28,"ny":28,"refTime":"2025-07-07T21:00:00:Z","depth":0,"parameterNumber":3,"parameterNumberName":"V-component_of_WINDS"},"data":[0,0,0,0,0,0,0,0,0,0,0,0,0,0,0,0,0,0,0,0,0,0,0,0,0,0,0,0,0,0,0,0,0,0,0,0,0,0,0,0,0,0,0,0,0,0,0,0,0,0,0,0,0,0,0,0,0,0,2.4867,2.487,0,2.5169,2.5172,2.5175,2.5232,2.523,2.5227,2.5225,2.5537,2.5547,2.5558,0,0,0,0,0,0,0,0,0,0,0,0,0,2.4338,2.4348,2.4867,2.487,2.4874,2.5168,2.5172,2.5176,2.5233,2.523,2.5227,2.5224,2.5533,2.5546,2.5559,0,0,0,0,0,0,0,0,0,0,0,0,0,2.4597,2.4351,2.4866,2.4938,2.4947,2.5167,2.5172,2.5177,2.5233,2.523,2.5226,2.5223,2.5529,2.5545,2.556,2.5731,0,0,2.5609,2.5616,0,0,0,0,0,0,0,0,2.4582,2.4616,2.4923,2.4933,2.4944,2.5159,2.51,2.5363,2.5234,2.5125,2.5225,2.5221,2.5414,2.5439,2.5504,2.5746,2.5759,2.561,2.562,2.5627,2.5631,0,0,0,0,0,0,0,2.4564,2.4603,2.4986,2.4928,2.494,2.4954,2.4987,2.515,2.5286,2.5134,2.5139,2.5174,2.5419,2.5489,2.5512,2.5764,2.561,2.5624,2.5634,2.564,2.6155,2.6159,0,0,0,0,0,0,2.4533,2.4588,2.4977,2.4995,2.475,2.4967,2.5003,2.5094,2.5285,2.531,2.5176,2.5175,2.5463,2.5493,2.5523,2.5732,2.5626,2.5641,2.565,2.6151,2.6156,2.616,0,0,0,0,0,0,2.4522,2.4567,2.4964,2.4793,2.4845,2.498,2.5081,2.5102,2.5171,2.5317,2.5341,2.5222,2.5462,2.5501,2.5678,2.5744,2.5648,2.5663,2.6146,2.6152,2.6158,2.6154,0,0,0,0,0,0,2.4506,2.4563,2.463,2.4794,2.4854,2.5115,2.5085,2.511,2.5198,2.5199,2.5366,2.5391,2.5462,2.5654,2.5693,2.5764,2.5675,2.6141,2.6149,2.6156,2.6149,2.6159,2.6168,0,0,0,0,0,2.4487,2.4618,2.4633,2.468,2.494,2.5118,2.5152,2.5231,2.5203,2.5271,2.5363,2.5385,2.573,2.5671,2.5716,2.5793,2.6137,2.6147,2.6156,2.6144,2.6157,2.6168,0,0,0,0,0,0,2.4461,2.4642,2.466,2.4848,2.4967,2.5127,2.5216,2.5243,2.5373,2.5369,2.5461,2.5498,2.5669,2.5749,2.568,2.5965,2.5931,2.595,2.5907,2.5921,2.593,2.5907,2.5688,0,0,0,0,0,2.4477,2.4606,2.4757,2.4908,2.4967,2.508,2.5161,2.5211,2.5338,2.5389,2.5496,2.5619,2.5754,2.5842,2.5975,2.616,2.6195,2.6234,2.6244,2.6251,2.6267,2.6366,2.6384,2.6191,2.6191,2.6191,0,0,2.4512,2.4626,2.4703,2.4906,2.5004,2.5135,2.5123,2.5264,2.5361,2.5411,2.5584,2.5665,2.5808,2.5988,2.6073,2.606,2.6327,2.6263,2.6268,2.628,2.6377,2.6395,2.6411,2.6198,2.6197,2.6196,0,0,2.4641,2.4742,2.4877,2.4974,2.5122,2.5196,2.5227,2.5383,2.5438,2.5612,2.5651,2.5768,2.6001,2.61,2.6181,2.6341,2.6365,2.6382,2.6433,2.6529,2.6544,2.6558,2.6612,2.6631,2.6397,2.6397,2.6397,0,2.4667,2.4865,2.4944,2.5081,2.5167,2.5216,2.5352,2.5443,2.5627,2.5685,2.5667,2.5957,2.6057,2.6259,2.6297,2.6362,2.64,2.6364,2.6535,2.655,2.6564,2.6617,2.6637,2.6398,2.6398,2.6398,2.6397,0,2.4887,2.5023,2.5115,2.5288,2.5385,2.5521,2.5619,2.5708,2.5747,2.5822,2.5996,2.6117,2.6273,2.6325,2.6367,2.6531,2.6518,2.6517,2.6484,2.6582,2.6633,2.6654,2.6399,2.6399,2.6398,2.6398,0,0,2.5012,2.5223,2.5255,2.5332,2.5495,2.5602,2.5739,2.589,2.5962,2.6086,2.6202,2.6394,2.6392,2.6484,2.6536,2.662,2.6735,2.6608,2.6613,2.6625,2.692,2.6919,2.6941,2.6751,2.6755,2.6758,2.6907,0,2.516,2.5405,2.5476,2.5682,2.5807,2.5852,2.597,2.6083,2.6155,2.6271,2.6352,2.6486,2.6474,2.6529,2.6614,2.6703,2.6795,2.6693,2.6858,2.6863,2.682,2.6969,2.697,2.7104,2.6928,2.6931,2.6934,0,2.5366,2.549,2.5707,2.5849,2.5905,2.601,2.6151,2.6263,2.6389,2.6436,2.6534,2.6578,2.672,2.6679,2.6874,2.6803,2.6874,2.6927,2.6934,2.6952,2.6904,2.6989,2.7149,2.7168,2.6966,2.6964,2.6961,0,2.5432,2.5654,2.5811,2.5876,2.6047,2.6119,2.6194,2.6317,2.6401,2.6524,2.6579,2.6718,2.6794,2.6899,2.6978,2.6941,2.7165,2.7132,2.7207,2.7204,2.7253,2.7248,2.7425,2.73,2.7299,2.7299,2.7299,0,2.5589,2.572,2.5842,2.5939,2.6085,2.6165,2.6307,2.6384,2.6492,2.6603,2.6651,2.6754,2.6853,2.6968,2.7031,2.7181,2.7216,2.7256,2.7271,2.7251,2.7246,2.7299,2.7291,2.7305,2.7303,2.7302,2.7301,0,2.5689,2.5776,2.595,2.6096,2.6135,2.6236,2.6361,2.6455,2.6527,2.6667,2.6704,2.6818,2.6956,2.7045,2.7222,2.7263,2.7427,2.744,2.7383,2.739,2.7459,2.745,2.7675,2.7708,2.7562,2.7563,2.7564,0,2.5783,2.5883,2.6038,2.6115,2.6189,2.6314,2.6399,2.648,2.6566,2.6715,2.6791,2.6931,2.7048,2.7266,2.7364,2.7498,2.7514,2.7583,2.7535,2.751,2.7512,2.7505,2.7514,2.7591,2.7592,2.7593,2.7594,0,2.5939,2.5976,2.6096,2.623,2.633,2.644,2.655,2.661,2.671,2.6804,2.6945,2.7035,2.7213,2.7351,2.7492,2.7569,2.7597,2.7608,2.7632,2.7613,2.7575,2.7594,2.7403,2.7603,2.7602,2.7601,2.7601,2.76,2.6038,2.6127,2.6249,2.638,2.647,2.6571,2.6665,2.6747,2.6865,2.7016,2.7056,2.7202,2.7322,2.7515,2.7593,2.7707,2.7698,2.7734,2.7743,2.775,2.7749,2.7556,2.7733,2.7733,2.7733,2.7733,2.7733,0,2.6194,2.6273,2.6393,2.6543,2.6645,2.6661,2.6783,2.6867,2.6994,2.7103,2.7215,2.7374,2.7507,2.7613,2.7749,2.782,2.7836,2.7853,2.7848,2.7864,2.7751,2.7715,2.7837,2.7837,2.7837,2.7837,2.7837,2.7837,2.6288,2.6439,2.6489,2.6685,2.6763,2.6905,2.6972,2.7064,2.7151,2.7326,2.7435,2.7503,2.761,2.7753,2.7874,2.7902,2.7949,2.7962,2.7992,2.7884,2.7873,2.7862,2.7829,2.7972,2.7972,2.8096,2.8097,2.8098]}]]